Meteo Giornale » Osservazioni meteo Italia » Roma Fiumicino

ore: 17:20 - Osservazioni Meteo Roma Fiumicino
Lat. 41° 48' N Lon. 12° 14' E Alt. 2 metri s.l.m.

poco_nuvoloso Europe/Rome

30 °C

Poco Nuvoloso

Temp. 24 Ore

19 °C

30 °C

Ovest

18.5 Km/h

Dew point 19 °C

Umidità 51 %

Visibilità  10 Km

Il sole sorge alle ore 06:19

Il sole tramonta alle ore 20:11

Data e Ora Cielo e Fenomeni T °C DP °C Um. % Pres. hPa Vis. km Vento km/h
Oggi h: 17:20 poco_nuvoloso Poco Nuvoloso 30 19 51 1012 10 O 18.5
Oggi h: 16:50 nuvoloso Nuvoloso 29 18 51 1012 10 O 22.2
Oggi h: 16:20 poco_nuvoloso Poco Nuvoloso 29 19 54 1012 10 O 18.5
Oggi h: 15:50 poco_nuvoloso Poco Nuvoloso 29 20 58 1012 10 O 22.2
Oggi h: 15:20 poco_nuvoloso Poco Nuvoloso 29 20 58 1012 10 O 20.3
Oggi h: 14:50 poco_nuvoloso Poco Nuvoloso 29 19 54 1012 10 O 18.5
Oggi h: 14:20 poco_nuvoloso Poco Nuvoloso 29 19 54 1012 10 O 18.5
Oggi h: 13:50 poco_nuvoloso Poco Nuvoloso 29 19 54 1013 10 O 16.7
Oggi h: 13:20 poco_nuvoloso Poco Nuvoloso 29 19 54 1013 10 O 16.7
Oggi h: 12:50 sereno Sereno 30 20 55 1013 10 O 9.3
Oggi h: 12:20 sereno Sereno 30 17 45 1013 10 N 5.5
Oggi h: 11:50 sereno Sereno 30 17 45 1013 10 E/NE 9.3
Oggi h: 11:20 sereno Sereno 29 18 51 1013 10 E/NE 11.1
Oggi h: 10:50 sereno Sereno 28 18 54 1013 10 NE 9.3
Oggi h: 10:20 sereno Sereno 27 18 57 1013 10 NE 11.1
Oggi h: 09:50 sereno Sereno 26 19 65 1013 10 N 5.5
Oggi h: 09:20 sereno Sereno 25 20 73 1013 10 N 5.5
Oggi h: 08:50 sereno Sereno 23 19 78 1013 10 E/NE 7.4
Oggi h: 08:20 sereno Sereno 22 18 78 1013 10 N 3.7
Oggi h: 07:50 sereno Sereno 21 18 82 1013 10 N 5.5
Oggi h: 07:20 sereno Sereno 20 18 88 1013 10 N 1.8
Oggi h: 06:50 sereno Sereno 20 18 88 1013 10 N 5.5
Oggi h: 06:20 sereno Sereno 19 18 93 1013 10 N 5.5
Oggi h: 05:50 sereno Sereno 19 18 93 1012 10 N 3.7
Oggi h: 05:20 sereno Sereno 19 19 100 1013 10 N 3.7
Oggi h: 04:50 sereno Sereno 19 18 93 1013 10 N 5.5
Oggi h: 04:20 sereno Sereno 19 18 93 1013 10 N 5.5
Oggi h: 03:50 sereno Sereno 19 18 93 1013 10 N 3.7
Oggi h: 03:20 sereno Sereno 19 18 93 1013 10 N 3.7
Oggi h: 02:50 sereno Sereno 19 19 100 1013 10 N 3.7
Oggi h: 02:20 sereno Sereno 19 19 100 1013 10 N 1.8
Oggi h: 01:50 sereno Sereno 19 19 100 1013 10 N 3.7
Oggi h: 01:20 sereno Sereno 20 19 93 1013 10 N 5.5
Oggi h: 00:50 sereno Sereno 20 19 93 1014 10 N 3.7
Oggi h: 00:20 sereno Sereno 20 19 93 1014 10 N 3.7
Ieri h: 23:50 sereno Sereno 20 19 93 1014 10 N 3.7
Ieri h: 23:20 sereno Sereno 20 19 93 1014 10 E/NE 7.4
Ieri h: 22:50 sereno Sereno 21 19 88 1014 10 N 5.5
Ieri h: 22:20 sereno Sereno 21 19 88 1013 10 E/NE 7.4
Ieri h: 21:50 sereno Sereno 21 19 88 1014 10 N 5.5
Ieri h: 21:20 sereno Sereno 21 19 88 1013 10 N 3.7
Ieri h: 20:50 poco_nuvoloso Poco Nuvoloso 21 19 88 1013 10 E 7.4
Ieri h: 20:20 nuvoloso Nuvoloso 21 19 88 1013 10 E 11.1
Ieri h: 19:50 nuvoloso Rovescio nelle Vicinanze 21 20 94 1012 10 E 13
Ieri h: 19:20 nuvoloso Nuvoloso 21 20 94 1012 10 N 5.5
Ieri h: 18:50 coperto_pioggia Pioviggine Leggera Temporale nelle Vicinanze 22 20 88 1012 10 NO 7.4
Ieri h: 18:20 nuvoloso_temporali Temporale con Pioggia Debole 22 19 83 1012 10 SO 7.4
Ieri h: 17:50 nuvoloso_temporali Temporale con Pioggia Debole 22 18 78 1013 10 S/SE 9.3